User: anonymous   Login
Location: Caltech
(34.1382°N, 118.1253°W)
Time: 16:56:09
(UTC-07:00)
Language:

Cosmos 1125 Rocket - Orbit

View from above orbital plane
View from above orbital plane
View from above satellite
View from above satellite

Ground track
Ground track

The orbit data is extracted from the following two-line orbital elements,

1 11511U 79078B   15146.79426602  .00000074  00000-0  34060-4 0  9991
2 11511 074.0374 258.0528 0016396 323.1346 036.8679 14.36622622870562
Epoch (UTC): 26 May 2015 19:03:44
Eccentricity: 0.0016396
inclination: 74.0374°
perigee height: 758 km
apogee height: 781 km
right ascension of ascending node: 258.0528°
argument of perigee: 323.1346°
revolutions per day: 14.36622622
mean anomaly at epoch: 36.8679°
orbit number at epoch: 87056

The dashed part of the orbit path shows where the satellite is in the earth's shadow,  

DLR